Vorticity
8 8 9 10 11 11 13 13 12 12 12 13 14 14 14 16 17 18 19 19 20 20 19 19 19 20 20 20 20 19 19 20 20 20 20 20 20 20 20 20 19 19 19 18 18 17 16 16 15 14 13 13 13 12 12 12 12 12 11 11 11 10 10 10 10 10 10 10 10 10 10 10 10 10 10 10 10 10 10 10 10 10 10 9 9 9
9 10 11 12 12 12 12 13 13 13 12 13 14 15 16 17 18 18 20 20 20 20 19 19 18 18 18 18 18 18 19 19 20 20 20 20 20 20 19 19 18 18 17 16 16 15 14 13 12 12 11 11 11 11 11 11 11 10 10 10 10 10 10 10 10 10 10 10 10 10 10 11 11 11 11 11 12 12 11 11 11 11 10 10 10 9
10 11 13 13 13 13 12 12 14 15 15 15 16 16 17 18 19 19 20 19 19 18 18 17 17 16 16 17 18 18 19 19 19 20 20 20 19 18 18 17 16 16 15 13 12 11 10 10 10 10 10 10 10 10 10 10 10 9 9 9 9 9 9 9 9 9 9 9 10 10 10 11 11 11 12 12 12 12 12 12 12 11 11 10 10 9
12 12 12 12 13 15 14 13 13 15 16 16 16 17 18 19 19 20 19 18 17 16 15 15 15 16 16 17 18 18 19 18 18 18 19 18 18 17 16 15 14 13 12 10 9 9 9 9 9 10 10 10 10 10 10 9 9 9 9 9 9 9 9 9 9 9 9 9 9 10 10 10 10 11 11 11 11 11 11 11 11 11 10 10 10 9
14 14 12 12 13 14 15 15 15 15 16 17 17 18 18 19 18 18 17 16 16 15 14 14 14 16 17 17 18 18 18 17 17 17 17 17 16 15 14 12 11 10 9 8 8 9 10 10 10 11 11 11 10 10 10 10 10 10 10 10 9 9 9 9 9 9 9 9 9 10 10 10 10 10 10 10 10 10 10 10 10 10 9 9 9 9
15 14 12 13 14 14 13 15 16 16 16 17 18 18 19 18 17 16 15 14 14 14 14 14 14 15 16 17 17 17 17 16 16 16 16 15 14 13 12 10 9 9 9 9 10 11 11 12 12 13 13 12 12 11 11 11 11 11 11 10 10 10 9 9 9 9 9 9 10 10 10 10 10 10 10 10 10 10 10 10 10 10 10 10 10 10
14 14 13 15 15 14 14 16 17 17 17 17 17 18 18 17 16 15 13 12 12 13 14 14 14 15 15 16 16 16 16 16 16 15 14 13 12 11 10 9 9 9 10 11 12 13 14 14 14 14 14 13 13 12 12 12 12 12 12 11 10 10 9 9 9 9 10 10 10 10 11 11 11 11 11 12 12 12 12 13 13 13 13 13 14 14
13 13 14 15 14 14 16 17 18 18 18 17 16 16 16 14 13 13 13 12 12 13 14 14 14 15 15 16 16 16 16 16 15 14 13 11 10 10 9 10 10 11 12 13 14 15 15 15 15 15 14 13 13 13 13 13 13 13 12 11 10 9 9 9 10 10 10 10 11 11 12 12 13 14 15 15 16 16 16 17 17 17 18 18 18 18
13 13 14 15 14 14 14 16 17 17 17 17 17 16 15 13 11 10 12 12 13 13 14 14 15 15 15 16 16 16 14 14 13 13 12 11 10 10 10 10 11 12 13 14 14 15 15 15 15 14 13 13 13 13 13 13 13 13 12 10 10 9 9 9 10 10 10 11 12 13 14 15 17 18 18 18 19 19 19 19 20 20 20 20 21 21
14 14 14 16 16 16 15 15 15 15 14 15 15 15 15 14 13 11 11 12 13 13 14 14 15 16 16 16 15 15 14 11 10 10 11 11 10 10 10 11 12 13 13 14 14 14 14 14 13 13 13 13 13 13 14 14 13 12 11 10 9 9 9 9 10 10 11 13 14 16 18 19 20 20 20 19 19 19 20 20 20 21 21 22 22 21
15 15 15 15 15 16 17 16 15 14 14 13 12 12 12 14 14 13 12 12 13 13 13 14 15 16 17 15 14 13 12 10 10 10 10 11 10 10 10 11 12 13 13 13 13 13 13 12 12 12 12 12 13 13 14 14 13 12 10 10 9 9 9 10 10 12 14 17 19 21 21 21 20 20 19 19 20 20 20 21 21 22 22 22 22 21
15 15 15 15 14 15 16 16 15 14 14 13 12 10 10 11 12 13 14 14 14 14 13 13 14 14 15 14 13 11 10 10 11 12 13 12 10 10 10 11 11 12 12 12 12 12 12 12 12 12 12 12 13 14 14 14 12 11 10 9 9 9 10 11 13 16 20 22 22 22 21 20 20 20 20 20 21 21 22 22 23 23 23 22 22 20
16 15 15 16 16 16 16 14 13 12 12 12 12 12 11 11 12 13 14 14 14 14 14 14 14 13 12 11 10 10 10 10 12 13 14 12 10 10 12 12 12 11 12 12 12 11 11 12 12 12 12 13 14 14 14 13 12 11 10 10 10 10 11 14 18 21 23 23 22 21 20 21 21 22 22 23 23 24 24 24 24 24 24 23 22 20
15 15 15 15 15 15 14 12 12 11 11 12 12 13 12 12 13 13 14 13 13 13 13 13 13 12 11 9 7 8 10 12 14 14 12 9 9 11 13 13 13 12 12 12 12 12 12 13 13 13 13 14 15 15 14 13 12 11 10 10 11 12 14 18 22 23 23 22 21 21 21 22 24 24 25 26 26 26 26 25 25 24 24 23 22 21
14 13 14 13 13 12 12 11 11 12 12 12 13 13 13 13 13 14 14 13 12 12 12 11 10 10 8 7 7 8 10 13 15 14 12 9 9 11 13 14 13 12 12 13 14 14 14 14 15 15 15 16 15 15 14 13 12 12 11 11 12 14 18 21 22 22 21 21 21 22 23 24 25 25 26 26 26 26 26 25 25 24 24 23 22 22
13 13 13 12 11 11 11 11 12 13 13 13 13 13 13 13 13 13 13 12 11 11 10 10 11 10 6 4 4 6 11 13 14 14 12 12 11 12 12 13 13 13 13 14 15 16 17 16 16 17 17 17 16 15 13 13 13 12 12 12 14 16 20 22 22 21 20 20 20 21 21 22 22 22 22 22 22 22 22 22 22 21 21 20 20 20
12 12 12 11 11 11 11 12 13 13 14 13 13 13 13 13 12 11 11 10 9 8 7 8 10 11 12 6 3 4 10 13 14 13 12 12 12 12 12 13 13 14 14 15 16 17 19 18 18 18 18 18 17 15 13 13 13 13 12 13 15 18 21 21 20 19 18 17 17 17 16 16 15 15 15 15 15 15 15 15 15 15 15 14 14 13
12 12 11 11 12 12 12 13 13 14 14 13 13 13 13 12 11 10 9 8 8 7 7 7 7 8 12 9 7 8 12 13 14 13 12 13 12 12 11 12 13 14 16 16 16 17 18 19 19 20 20 19 17 15 13 13 13 13 13 14 17 19 20 19 18 16 15 13 12 11 10 9 9 8 8 8 9 9 8 8 8 8 8 8 7 7
12 12 12 12 12 12 13 14 14 14 14 13 12 12 11 11 10 9 8 7 7 7 7 7 6 5 6 7 10 13 15 14 14 13 12 12 12 11 10 11 12 14 15 15 16 17 18 18 19 20 22 20 18 15 13 14 14 15 14 16 17 18 18 17 15 13 11 9 8 7 6 6 5 5 6 6 6 6 6 5 5 5 5 5 5 5
12 12 13 13 13 13 14 15 15 15 14 13 12 10 10 8 7 7 7 6 6 6 6 5 5 6 6 8 12 16 17 15 14 13 11 11 10 10 9 10 12 13 13 13 13 16 18 20 21 22 23 21 17 14 13 15 16 16 15 16 16 16 16 14 12 10 8 6 5 5 4 4 4 4 4 4 4 4 4 4 3 3 3 3 3 3
12 13 14 14 14 14 15 15 16 15 14 12 10 10 8 7 7 7 6 6 6 6 6 5 6 7 9 11 14 17 18 16 13 11 8 9 9 7 7 8 11 12 11 10 12 15 18 21 23 24 23 19 16 13 13 15 16 16 15 15 15 14 14 12 10 8 6 5 4 4 4 3 3 3 2 2 2 2 2 2 2 2 2 2 1 1
13 13 14 15 15 15 15 15 15 14 12 10 9 8 6 6 6 6 5 5 5 5 6 6 7 9 11 13 16 19 19 15 11 8 7 8 7 6 5 7 9 9 8 10 12 15 19 23 24 23 21 17 14 13 13 15 16 16 16 15 14 13 12 11 10 8 6 5 4 3 3 3 2 2 1 1 1 1 1 1 1 1 1 1 1 1
14 14 15 16 17 16 15 14 13 12 10 9 8 7 7 7 6 5 4 4 5 6 7 8 10 12 14 16 18 19 18 13 9 6 6 7 6 6 6 6 7 7 7 9 13 17 21 23 23 22 18 15 13 13 14 15 16 16 16 15 14 13 12 11 9 7 6 4 3 3 3 2 2 2 1 1 1 0 1 1 1 1 1 1 2 2
16 16 17 17 16 15 14 13 11 10 9 9 8 8 7 7 7 6 5 6 7 8 9 10 12 15 17 18 19 17 13 9 7 6 6 6 6 6 6 6 7 7 7 8 12 18 24 24 22 19 16 14 14 14 15 16 17 17 17 16 15 13 12 11 10 8 6 4 3 2 2 2 2 1 1 0 0 0 1 1 1 1 2 2 2 2
17 17 17 16 15 13 12 10 9 8 8 8 8 7 7 8 8 9 10 11 12 12 12 13 14 16 17 16 14 12 8 7 7 7 7 7 6 6 6 6 7 8 9 10 12 17 24 25 22 17 14 14 15 16 16 16 16 17 18 17 16 15 13 12 10 8 6 4 3 2 1 1 1 1 0 0 0 0 1 1 1 1 2 2 2 2
18 16 15 14 12 11 10 9 8 8 8 8 8 8 8 9 10 11 13 14 15 14 13 14 14 14 13 11 10 9 8 8 8 8 8 8 8 7 6 7 7 8 10 11 13 16 21 22 21 18 16 17 18 18 16 14 14 16 17 18 17 16 14 13 11 10 7 6 4 2 2 1 1 1 0 0 0 1 1 1 1 2 2 2 2 2
16 14 13 12 10 9 8 8 8 8 9 10 10 10 9 9 9 10 12 14 14 13 12 13 13 11 10 8 8 8 10 10 10 9 9 10 8 7 7 8 8 9 10 11 13 16 19 20 20 20 20 22 20 17 12 11 11 12 14 16 18 18 16 15 13 12 10 8 6 4 3 2 1 1 1 1 1 1 2 2 2 2 2 2 3 3
13 12 11 10 9 8 8 8 9 10 11 12 12 11 10 8 9 10 13 13 13 13 14 13 11 9 7 7 7 8 9 10 10 10 10 10 8 7 8 8 8 9 10 12 14 16 15 15 18 22 23 24 21 15 8 7 8 10 12 15 17 18 18 16 15 13 12 10 8 7 5 4 3 2 2 2 2 2 3 3 4 4 4 4 4 5
12 10 10 9 8 8 9 10 11 12 13 12 12 11 10 10 11 12 13 12 12 14 15 13 10 8 5 6 7 7 5 8 10 10 10 9 8 7 9 9 9 9 9 13 15 16 11 10 13 19 23 24 20 14 8 7 8 10 12 13 15 16 17 16 15 14 12 11 10 8 7 6 5 5 4 4 4 4 5 5 5 5 5 5 6 6
10 9 9 10 10 10 11 12 13 13 12 11 11 10 10 12 13 14 13 13 14 14 13 11 9 7 5 6 6 5 3 7 8 8 9 8 8 8 9 9 9 9 8 11 14 15 10 7 7 11 19 23 20 15 12 11 11 12 13 13 13 13 14 15 15 14 13 12 11 10 9 8 8 7 7 6 6 6 7 7 6 6 6 6 7 8
9 9 10 12 13 13 13 13 12 11 10 10 10 10 11 13 14 15 14 15 15 14 12 10 8 6 4 4 4 3 3 6 7 7 9 9 9 9 9 9 8 8 6 7 10 12 13 9 5 6 13 19 20 18 16 14 14 14 15 14 13 11 12 13 14 15 14 13 13 12 11 10 10 9 9 8 8 8 7 7 7 7 7 7 8 9
10 11 13 14 14 14 13 12 11 10 9 10 10 11 12 13 15 16 17 16 15 13 12 9 7 5 4 4 3 3 3 6 8 9 10 9 10 10 9 8 8 7 5 4 4 6 10 9 9 9 10 14 18 18 16 15 14 15 16 15 13 10 10 12 14 15 15 14 14 13 12 11 10 9 9 8 8 7 7 7 7 7 7 8 9 9
12 14 15 15 15 13 12 11 10 10 9 10 10 11 12 14 16 17 17 17 15 13 10 7 5 4 4 4 4 4 6 8 10 11 11 11 11 10 10 8 7 6 5 4 3 3 3 5 10 13 10 10 12 15 16 14 14 15 16 15 13 11 9 11 13 14 16 16 15 14 13 11 10 9 8 7 7 7 7 7 8 8 8 9 10 10
14 15 16 15 13 12 10 10 10 10 10 10 10 11 12 14 15 16 17 16 15 13 10 7 4 3 3 4 6 7 8 10 12 13 13 12 12 11 10 9 7 6 5 4 3 3 3 3 6 10 12 10 7 8 12 16 18 17 15 14 13 12 10 11 12 14 16 17 17 17 16 14 13 11 10 9 8 8 8 8 9 9 10 10 10 10
16 15 15 13 12 11 10 10 10 10 10 10 11 11 12 13 14 15 16 15 14 12 10 7 5 3 4 5 7 9 10 12 13 13 14 14 13 12 10 9 8 6 4 4 3 3 3 3 4 7 12 13 10 7 7 15 20 20 15 12 10 10 10 11 12 14 17 18 20 20 20 19 17 16 14 12 11 10 10 10 10 11 11 11 10 10
15 14 13 12 11 10 10 10 10 10 11 12 12 11 11 12 13 14 15 14 13 12 10 8 6 5 5 7 8 10 11 12 13 14 14 14 14 12 10 10 8 6 5 4 4 4 4 4 5 5 7 11 14 14 10 15 18 19 16 13 11 10 9 9 11 14 17 19 21 22 23 22 21 19 17 15 14 13 13 13 13 13 12 11 10 10
14 14 13 12 10 10 9 10 11 12 12 13 12 12 12 12 12 13 13 13 12 11 10 10 9 9 9 9 10 11 12 13 14 14 15 15 14 13 11 10 10 8 6 5 4 4 4 5 6 6 5 7 12 17 20 20 19 16 14 14 13 12 9 9 10 13 16 18 20 22 22 22 21 20 18 16 15 15 15 15 15 14 13 12 11 11
14 13 12 11 10 9 9 10 11 13 13 13 12 12 11 12 12 13 14 13 12 12 11 11 11 12 12 12 12 12 13 13 14 14 15 16 16 15 13 12 11 10 9 7 6 5 5 5 6 7 7 8 10 14 19 22 20 17 15 15 13 11 9 10 10 11 13 16 18 19 19 19 19 18 18 17 16 16 16 16 15 14 12 12 11 11
14 12 10 9 9 9 9 10 12 12 13 12 11 10 11 13 14 16 16 15 13 12 11 11 11 12 13 14 14 14 15 16 16 16 16 17 17 16 15 13 12 11 10 9 7 6 6 6 6 7 9 11 12 13 15 16 17 18 20 17 12 7 7 8 10 11 12 15 16 16 16 16 16 17 17 17 17 17 16 15 14 12 12 11 12 12
12 10 9 8 8 9 10 11 12 13 12 11 10 10 12 14 16 17 17 15 13 12 10 11 11 12 14 15 17 18 19 18 18 18 17 17 17 16 14 13 11 10 9 8 8 7 7 7 8 9 10 11 14 17 17 15 15 16 19 16 12 9 9 9 10 11 12 13 14 15 16 16 16 16 16 17 16 16 14 13 12 12 12 13 13 13
9 8 7 7 8 10 12 13 14 13 12 10 10 11 13 15 16 16 14 12 10 9 9 10 11 13 15 18 20 21 20 19 18 17 16 15 14 13 12 11 10 9 8 8 7 8 8 9 10 11 11 12 14 15 16 15 16 16 16 13 12 11 11 11 11 12 13 13 13 14 15 16 16 16 16 16 15 14 13 12 12 13 14 16 17 16
8 7 7 7 9 12 14 14 14 13 10 10 11 13 14 14 13 12 10 8 7 8 10 11 12 14 16 19 21 21 19 18 16 15 14 13 12 11 10 10 9 9 9 9 10 10 10 11 12 13 13 14 15 16 15 15 16 16 15 12 11 11 10 10 11 12 13 13 14 15 15 16 16 16 16 15 14 13 12 13 14 16 17 18 18 18
6 7 8 10 13 14 15 15 14 12 9 10 11 12 12 11 9 8 6 7 8 10 12 13 14 14 15 16 16 15 15 14 13 13 12 12 11 11 11 11 11 11 11 12 13 13 13 14 14 14 14 15 15 16 16 17 17 16 14 13 12 11 10 10 11 12 12 14 16 17 17 17 17 16 15 14 13 13 13 15 16 18 19 18 17 16
7 8 11 14 16 16 17 15 13 10 9 9 9 9 8 7 7 7 7 9 11 13 13 13 13 12 11 11 10 10 11 11 11 11 11 11 12 12 13 13 14 14 14 14 15 15 15 16 15 15 15 16 16 16 17 18 17 16 14 13 12 11 10 11 12 13 14 16 17 18 18 18 18 17 15 14 14 14 15 17 18 18 18 17 16 16
8 11 14 16 17 16 15 13 10 8 7 6 6 6 6 7 8 9 10 12 13 14 13 13 11 10 8 7 7 7 8 9 10 10 10 10 10 11 12 13 14 14 15 15 15 16 16 16 16 16 16 16 17 18 18 18 17 16 14 13 13 12 12 13 14 15 16 18 18 18 17 18 18 17 15 14 13 14 15 17 18 19 18 18 16 16
10 13 15 16 16 14 11 9 7 6 5 5 5 6 7 9 11 12 13 14 14 14 13 12 10 7 6 6 5 6 6 6 7 8 8 8 9 10 11 13 13 14 14 15 15 16 16 16 16 17 17 18 18 18 17 16 16 15 15 14 14 14 15 15 15 15 16 18 19 18 16 16 16 15 14 14 14 13 14 16 18 20 20 18 17 16
11 13 15 14 12 10 8 7 6 5 5 6 7 8 10 12 13 14 15 15 14 13 12 11 9 7 6 5 5 5 5 5 6 6 7 8 8 9 10 11 12 13 14 15 16 17 17 17 17 17 18 19 19 18 16 13 13 13 15 15 15 15 15 14 14 14 16 17 17 17 16 15 13 12 12 13 13 13 14 16 18 20 21 19 18 18
13 14 14 13 11 9 7 6 5 6 7 8 10 11 12 14 14 15 15 15 14 12 11 10 9 7 6 5 5 5 6 6 6 6 7 7 8 9 9 9 10 12 13 15 16 18 18 18 18 18 16 17 18 18 16 13 11 11 14 14 14 14 13 13 13 13 14 14 14 14 14 13 12 12 13 13 13 13 15 18 20 21 21 19 18 18
13 14 13 12 10 9 7 6 6 7 8 10 11 12 13 14 15 15 15 14 13 12 10 9 8 7 5 5 5 6 6 6 7 7 8 7 8 8 9 9 10 11 13 14 16 18 19 19 18 16 14 14 15 16 15 12 11 12 13 13 12 12 12 12 11 12 13 13 13 12 11 10 10 11 13 13 14 15 18 21 22 21 18 17 17 17
13 13 13 12 11 9 8 8 8 8 9 10 11 12 13 13 14 14 14 13 12 10 10 8 7 6 5 5 5 6 6 7 8 9 9 9 8 8 8 9 10 12 14 16 17 18 21 22 18 11 5 6 9 12 13 13 13 13 12 11 11 11 11 11 11 11 12 13 13 12 11 10 10 10 12 12 14 17 20 23 23 20 16 14 13 13
13 13 13 12 11 10 10 9 9 9 9 10 10 11 12 12 12 12 12 11 10 9 8 8 7 6 5 5 6 6 7 8 9 10 11 10 9 8 8 9 10 12 14 16 17 18 21 26 22 12 -0 -1 2 7 10 13 15 15 13 12 11 11 11 11 11 12 12 12 12 12 11 11 12 12 13 14 16 18 21 23 21 17 13 11 10 10
Height
2974 2972 2971 2969 2967 2964 2962 2960 2958 2956 2953 2951 2950 2948 2947 2944 2942 2940 2939 2937 2935 2933 2931 2929 2928 2927 2925 2924 2923 2921 2919 2917 2916 2914 2913 2911 2910 2908 2907 2906 2904 2903 2902 2901 2900 2899 2898 2897 2896 2895 2894 2894 2893 2892 2892 2891 2891 2890 2889 2889 2888 2887 2887 2887 2886 2886 2885 2884 2884 2883 2883 2882 2882 2882 2882 2881 2881 2880 2880 2880 2880 2880 2880 2879 2879 2879
2971 2968 2967 2964 2962 2960 2957 2955 2954 2952 2950 2947 2945 2943 2942 2940 2938 2936 2935 2933 2931 2929 2927 2926 2924 2922 2921 2920 2919 2917 2916 2914 2912 2911 2909 2908 2907 2905 2904 2902 2902 2900 2899 2898 2897 2896 2895 2894 2893 2892 2892 2891 2890 2889 2889 2888 2887 2887 2886 2885 2885 2884 2883 2883 2882 2882 2881 2881 2880 2879 2879 2878 2878 2878 2877 2877 2877 2877 2877 2877 2876 2876 2876 2876 2876 2876
2967 2964 2962 2960 2958 2956 2954 2952 2949 2947 2946 2944 2942 2939 2938 2936 2934 2932 2931 2929 2927 2925 2924 2922 2921 2919 2917 2916 2915 2914 2912 2910 2909 2907 2906 2905 2903 2902 2901 2900 2898 2897 2897 2895 2894 2893 2892 2891 2890 2889 2888 2888 2887 2886 2886 2885 2884 2883 2882 2882 2881 2880 2880 2879 2878 2878 2877 2877 2876 2876 2875 2875 2874 2874 2874 2873 2873 2873 2873 2873 2872 2872 2872 2872 2872 2872
2963 2960 2958 2956 2954 2952 2950 2948 2946 2943 2942 2940 2938 2936 2934 2932 2930 2929 2927 2926 2924 2922 2920 2918 2917 2915 2914 2912 2911 2910 2909 2907 2906 2904 2903 2902 2901 2899 2898 2897 2896 2895 2894 2893 2892 2891 2890 2888 2887 2887 2886 2885 2884 2883 2882 2882 2881 2880 2879 2878 2877 2877 2876 2875 2875 2874 2873 2873 2872 2872 2871 2871 2870 2870 2870 2870 2869 2869 2869 2869 2868 2868 2868 2867 2867 2867
2959 2956 2954 2952 2949 2947 2945 2944 2942 2940 2938 2936 2934 2932 2930 2928 2927 2925 2923 2921 2920 2918 2916 2914 2913 2912 2910 2908 2907 2906 2905 2904 2903 2902 2900 2899 2898 2897 2896 2895 2893 2892 2892 2890 2889 2888 2887 2886 2885 2884 2883 2882 2882 2881 2880 2879 2878 2877 2876 2875 2874 2873 2872 2872 2871 2870 2870 2869 2868 2868 2867 2867 2867 2866 2866 2866 2865 2865 2865 2864 2864 2864 2863 2863 2863 2863
2955 2952 2950 2947 2945 2943 2942 2940 2938 2936 2934 2932 2929 2928 2927 2925 2923 2921 2919 2917 2915 2914 2912 2911 2909 2908 2907 2905 2904 2903 2902 2901 2900 2899 2898 2897 2895 2894 2893 2892 2891 2890 2889 2888 2887 2886 2885 2884 2883 2882 2881 2880 2879 2878 2877 2876 2875 2874 2872 2872 2871 2870 2869 2868 2867 2867 2866 2866 2865 2864 2864 2864 2863 2862 2862 2862 2861 2861 2861 2860 2860 2860 2859 2859 2859 2859
2950 2948 2947 2944 2942 2939 2937 2936 2935 2933 2930 2927 2925 2923 2922 2921 2919 2917 2915 2913 2911 2910 2908 2907 2906 2905 2904 2903 2902 2900 2899 2899 2898 2897 2896 2894 2893 2892 2891 2890 2889 2888 2887 2886 2885 2884 2882 2881 2880 2879 2878 2877 2876 2875 2874 2873 2872 2871 2869 2868 2867 2866 2866 2865 2864 2863 2863 2862 2862 2861 2861 2860 2860 2859 2858 2858 2857 2857 2857 2856 2856 2855 2855 2855 2855 2855
2947 2944 2942 2941 2939 2936 2934 2932 2931 2929 2927 2924 2922 2919 2918 2916 2914 2913 2912 2911 2909 2907 2905 2904 2903 2902 2902 2901 2899 2898 2897 2896 2895 2894 2893 2892 2891 2890 2889 2888 2887 2886 2885 2883 2882 2881 2880 2879 2877 2877 2875 2874 2873 2872 2871 2870 2868 2867 2866 2865 2864 2863 2862 2861 2861 2860 2860 2859 2859 2858 2857 2857 2856 2855 2854 2854 2853 2852 2852 2852 2851 2851 2851 2851 2850 2850
2943 2941 2939 2937 2935 2934 2932 2928 2926 2925 2924 2922 2919 2916 2914 2912 2910 2909 2908 2907 2907 2905 2903 2901 2900 2899 2899 2898 2897 2896 2894 2893 2892 2892 2890 2889 2888 2887 2886 2885 2884 2883 2882 2881 2880 2878 2877 2876 2875 2874 2872 2871 2870 2869 2868 2867 2865 2864 2863 2862 2861 2860 2859 2858 2857 2857 2857 2856 2855 2854 2854 2853 2852 2851 2850 2849 2849 2848 2847 2847 2847 2846 2846 2846 2846 2846
2939 2938 2936 2933 2931 2930 2929 2926 2923 2921 2920 2918 2916 2913 2912 2910 2908 2906 2904 2903 2903 2903 2901 2899 2898 2897 2896 2896 2895 2894 2892 2891 2890 2889 2888 2887 2886 2884 2883 2882 2881 2880 2879 2878 2877 2876 2874 2873 2872 2871 2870 2868 2867 2866 2865 2863 2862 2861 2859 2858 2857 2856 2856 2855 2855 2854 2853 2852 2852 2851 2850 2848 2847 2847 2846 2845 2844 2844 2843 2842 2842 2842 2842 2842 2842 2842
2936 2934 2932 2930 2928 2926 2924 2922 2921 2918 2917 2915 2912 2910 2909 2908 2907 2904 2901 2900 2899 2899 2898 2897 2896 2895 2894 2892 2892 2891 2890 2889 2888 2887 2886 2885 2883 2882 2880 2879 2878 2877 2876 2875 2874 2873 2872 2870 2869 2868 2867 2866 2864 2863 2862 2860 2859 2857 2856 2855 2854 2853 2852 2852 2852 2851 2850 2849 2848 2847 2846 2844 2843 2843 2842 2841 2840 2840 2839 2839 2838 2838 2837 2837 2837 2837
2933 2931 2929 2927 2925 2923 2921 2919 2917 2915 2914 2912 2910 2908 2906 2905 2904 2902 2900 2897 2896 2896 2895 2893 2893 2893 2892 2891 2889 2888 2887 2886 2885 2883 2883 2882 2880 2879 2877 2876 2875 2874 2873 2872 2871 2870 2869 2867 2866 2865 2864 2862 2861 2860 2858 2857 2855 2854 2852 2852 2851 2850 2850 2849 2848 2847 2847 2845 2844 2843 2842 2841 2840 2839 2838 2837 2837 2836 2836 2835 2835 2834 2834 2834 2834 2834
2930 2928 2926 2923 2921 2919 2918 2916 2914 2912 2911 2910 2908 2906 2903 2902 2901 2900 2898 2896 2894 2893 2892 2890 2890 2890 2890 2889 2887 2885 2883 2882 2881 2880 2879 2878 2877 2876 2874 2872 2872 2871 2870 2869 2868 2867 2866 2865 2863 2862 2861 2860 2858 2857 2856 2854 2852 2851 2849 2848 2848 2847 2847 2846 2845 2844 2843 2842 2841 2840 2839 2838 2837 2836 2835 2834 2834 2833 2832 2832 2832 2832 2831 2831 2831 2831
2926 2924 2922 2920 2918 2917 2915 2913 2912 2910 2908 2907 2906 2904 2902 2900 2899 2897 2896 2893 2892 2891 2890 2888 2887 2887 2887 2887 2886 2883 2881 2878 2877 2877 2876 2875 2874 2873 2871 2869 2868 2868 2867 2866 2865 2864 2863 2862 2860 2859 2858 2857 2856 2854 2852 2851 2849 2847 2847 2846 2845 2844 2844 2843 2842 2841 2840 2839 2838 2837 2836 2835 2834 2833 2832 2832 2831 2830 2830 2830 2829 2829 2829 2829 2828 2829
2923 2922 2920 2917 2916 2914 2913 2911 2910 2907 2906 2905 2903 2901 2899 2898 2897 2895 2893 2891 2890 2888 2887 2886 2885 2884 2885 2884 2883 2881 2878 2875 2874 2872 2872 2872 2872 2871 2868 2866 2865 2865 2864 2863 2862 2861 2860 2858 2857 2856 2855 2854 2852 2851 2849 2847 2846 2844 2843 2843 2842 2842 2841 2840 2839 2838 2837 2836 2835 2834 2834 2833 2832 2831 2830 2830 2829 2828 2828 2827 2827 2827 2827 2827 2827 2827
2921 2919 2917 2915 2913 2912 2910 2909 2907 2906 2904 2902 2901 2899 2897 2895 2894 2893 2891 2889 2887 2886 2884 2883 2882 2881 2881 2882 2881 2879 2876 2872 2871 2869 2869 2869 2869 2868 2866 2864 2862 2862 2862 2861 2859 2858 2857 2855 2854 2853 2852 2851 2850 2848 2846 2844 2843 2842 2841 2840 2839 2839 2838 2837 2836 2836 2835 2834 2833 2832 2832 2831 2830 2829 2828 2827 2827 2827 2826 2826 2825 2825 2825 2825 2825 2825
2918 2917 2915 2913 2911 2909 2908 2907 2905 2903 2902 2900 2898 2897 2895 2894 2892 2891 2889 2887 2885 2884 2882 2881 2879 2877 2877 2877 2878 2877 2874 2871 2868 2867 2866 2866 2866 2866 2864 2862 2860 2858 2858 2858 2857 2855 2853 2852 2851 2850 2849 2848 2847 2845 2843 2842 2840 2839 2838 2837 2837 2836 2835 2835 2834 2833 2832 2832 2831 2830 2829 2828 2828 2827 2827 2826 2826 2825 2825 2824 2824 2823 2823 2823 2823 2823
2915 2914 2912 2910 2908 2907 2906 2905 2903 2901 2899 2897 2896 2894 2893 2892 2891 2889 2887 2885 2884 2882 2881 2879 2878 2876 2874 2873 2874 2874 2873 2869 2866 2864 2863 2863 2863 2863 2862 2860 2857 2856 2855 2855 2854 2852 2850 2849 2848 2847 2846 2845 2844 2842 2841 2839 2837 2836 2835 2834 2834 2833 2833 2832 2832 2831 2830 2830 2829 2828 2827 2827 2826 2825 2825 2825 2824 2824 2823 2823 2822 2822 2822 2822 2821 2821
2913 2912 2910 2908 2906 2904 2903 2902 2902 2900 2897 2895 2893 2892 2891 2890 2889 2887 2886 2884 2882 2880 2878 2877 2875 2874 2872 2871 2871 2871 2870 2867 2864 2862 2860 2860 2860 2861 2860 2857 2855 2853 2852 2852 2851 2849 2847 2846 2845 2844 2843 2842 2841 2840 2838 2837 2835 2834 2832 2832 2831 2831 2830 2830 2829 2829 2828 2827 2827 2826 2825 2825 2824 2824 2823 2823 2822 2822 2821 2821 2821 2820 2820 2819 2819 2819
2910 2908 2908 2907 2904 2902 2900 2900 2899 2898 2896 2894 2892 2890 2888 2887 2886 2885 2883 2882 2880 2878 2877 2875 2873 2872 2871 2870 2869 2869 2868 2865 2862 2860 2858 2857 2857 2858 2857 2855 2852 2850 2849 2849 2848 2846 2845 2843 2842 2842 2841 2840 2839 2837 2836 2834 2833 2832 2830 2829 2829 2828 2828 2827 2827 2826 2826 2825 2825 2824 2823 2823 2822 2822 2821 2821 2820 2820 2819 2819 2818 2818 2817 2817 2817 2816
2907 2906 2905 2904 2903 2900 2898 2897 2897 2896 2894 2892 2890 2888 2887 2885 2884 2882 2881 2879 2878 2876 2875 2874 2872 2871 2870 2868 2867 2867 2866 2864 2861 2857 2856 2854 2855 2855 2855 2852 2850 2847 2846 2846 2845 2844 2842 2841 2840 2839 2838 2837 2836 2835 2833 2832 2831 2829 2828 2827 2826 2826 2825 2825 2824 2824 2823 2823 2822 2822 2821 2821 2820 2819 2819 2818 2818 2817 2817 2817 2816 2816 2815 2815 2814 2814
2906 2904 2903 2902 2901 2899 2897 2896 2895 2894 2893 2891 2889 2887 2885 2883 2881 2880 2878 2877 2876 2875 2873 2872 2871 2870 2869 2867 2867 2866 2865 2862 2859 2856 2853 2852 2851 2852 2852 2850 2847 2845 2843 2843 2842 2841 2840 2838 2837 2837 2836 2835 2834 2833 2831 2830 2829 2827 2826 2825 2824 2823 2823 2822 2822 2822 2821 2820 2820 2819 2819 2818 2817 2817 2817 2816 2816 2815 2815 2814 2814 2813 2812 2812 2811 2811
2904 2902 2901 2900 2899 2897 2896 2894 2893 2892 2891 2889 2887 2885 2883 2882 2881 2879 2877 2876 2875 2873 2871 2870 2869 2868 2868 2867 2866 2865 2864 2862 2858 2855 2852 2849 2848 2848 2849 2847 2845 2842 2841 2840 2839 2838 2837 2836 2835 2834 2833 2832 2832 2830 2829 2828 2827 2825 2824 2823 2822 2821 2820 2820 2819 2819 2818 2818 2817 2817 2816 2816 2815 2815 2814 2814 2813 2813 2812 2812 2811 2810 2809 2809 2808 2807
2902 2901 2899 2898 2897 2896 2894 2892 2891 2890 2889 2887 2886 2884 2883 2882 2880 2878 2876 2875 2873 2872 2870 2868 2867 2867 2867 2866 2865 2864 2863 2861 2857 2854 2851 2847 2846 2845 2846 2844 2842 2840 2838 2838 2837 2835 2834 2833 2832 2832 2831 2830 2829 2828 2827 2826 2825 2823 2822 2821 2820 2819 2818 2818 2817 2817 2816 2816 2815 2815 2814 2813 2813 2812 2812 2811 2811 2810 2809 2809 2808 2807 2807 2806 2805 2805
2901 2899 2897 2896 2895 2894 2892 2891 2889 2888 2887 2887 2886 2884 2882 2880 2879 2877 2876 2874 2873 2871 2868 2867 2866 2865 2864 2864 2863 2862 2861 2859 2857 2853 2849 2846 2843 2842 2843 2842 2840 2837 2835 2835 2834 2832 2831 2830 2830 2829 2828 2827 2827 2826 2825 2823 2822 2821 2820 2819 2818 2817 2816 2815 2815 2814 2814 2813 2813 2812 2812 2811 2811 2810 2810 2809 2808 2807 2807 2806 2805 2805 2804 2803 2802 2802
2899 2897 2896 2895 2893 2892 2891 2890 2888 2887 2886 2885 2883 2881 2879 2877 2876 2875 2874 2873 2871 2869 2867 2865 2863 2862 2862 2861 2860 2860 2859 2857 2855 2852 2848 2845 2842 2840 2840 2840 2838 2835 2832 2832 2831 2830 2828 2827 2827 2826 2826 2825 2824 2823 2822 2821 2820 2819 2818 2817 2816 2815 2814 2813 2812 2812 2812 2811 2811 2810 2810 2809 2808 2808 2807 2806 2806 2805 2804 2803 2802 2802 2801 2800 2799 2798
2898 2896 2895 2893 2892 2891 2890 2888 2887 2886 2885 2883 2881 2879 2877 2875 2874 2872 2872 2871 2869 2867 2865 2863 2861 2860 2859 2858 2857 2857 2857 2856 2853 2851 2847 2843 2840 2838 2837 2837 2835 2832 2830 2828 2827 2827 2825 2824 2824 2823 2823 2822 2821 2820 2819 2818 2817 2817 2816 2815 2814 2813 2812 2811 2810 2810 2809 2809 2808 2808 2807 2807 2806 2805 2804 2803 2803 2802 2802 2801 2800 2799 2798 2797 2795 2795
2897 2895 2894 2892 2891 2890 2888 2887 2886 2885 2883 2882 2880 2878 2876 2874 2872 2871 2869 2868 2867 2865 2863 2861 2859 2858 2856 2855 2855 2855 2854 2854 2852 2848 2845 2842 2839 2836 2835 2834 2833 2831 2828 2826 2824 2823 2823 2822 2821 2820 2820 2819 2818 2817 2817 2816 2815 2814 2813 2812 2812 2811 2810 2809 2808 2807 2807 2806 2806 2805 2805 2804 2803 2802 2802 2801 2800 2800 2799 2798 2797 2796 2795 2793 2792 2791
2895 2894 2892 2891 2890 2889 2887 2886 2885 2883 2882 2881 2879 2877 2875 2873 2871 2869 2867 2866 2864 2862 2861 2859 2858 2856 2854 2853 2852 2852 2852 2852 2850 2847 2843 2840 2837 2835 2834 2832 2831 2829 2827 2823 2821 2819 2820 2819 2819 2817 2817 2816 2815 2815 2814 2813 2812 2812 2811 2810 2809 2809 2808 2807 2806 2805 2804 2804 2803 2802 2802 2801 2801 2800 2799 2798 2797 2797 2796 2795 2794 2793 2791 2790 2789 2787
2894 2893 2892 2890 2889 2887 2886 2885 2883 2882 2881 2879 2877 2875 2873 2871 2869 2867 2866 2864 2862 2861 2859 2858 2856 2855 2853 2851 2849 2849 2849 2850 2848 2845 2842 2838 2835 2833 2832 2831 2829 2828 2825 2822 2817 2815 2814 2815 2816 2815 2814 2813 2813 2812 2812 2811 2810 2809 2808 2807 2807 2806 2806 2805 2804 2803 2802 2802 2801 2800 2799 2799 2798 2797 2797 2796 2795 2794 2793 2792 2791 2789 2788 2786 2785 2784
2892 2891 2890 2889 2887 2886 2885 2883 2882 2880 2879 2877 2876 2874 2872 2870 2868 2866 2864 2863 2861 2859 2857 2856 2855 2853 2852 2850 2848 2846 2846 2847 2847 2844 2840 2837 2834 2832 2831 2829 2827 2826 2825 2822 2817 2813 2809 2809 2811 2812 2812 2811 2810 2809 2809 2808 2807 2806 2805 2805 2804 2804 2803 2802 2801 2800 2800 2799 2798 2798 2797 2796 2795 2795 2794 2793 2792 2791 2791 2789 2788 2786 2785 2783 2782 2780
2891 2889 2888 2887 2886 2884 2883 2882 2880 2879 2877 2876 2874 2872 2871 2869 2867 2865 2863 2862 2860 2858 2856 2855 2853 2852 2851 2849 2847 2846 2844 2845 2844 2842 2839 2836 2832 2830 2829 2827 2825 2824 2823 2822 2819 2815 2810 2806 2806 2807 2807 2807 2807 2806 2806 2805 2804 2803 2802 2802 2801 2801 2801 2800 2798 2798 2797 2797 2796 2795 2794 2793 2792 2792 2791 2790 2789 2788 2787 2787 2785 2783 2782 2780 2778 2777
2889 2887 2886 2885 2884 2882 2881 2880 2878 2877 2876 2874 2872 2871 2869 2867 2865 2863 2862 2860 2858 2857 2855 2853 2852 2851 2849 2848 2846 2845 2844 2843 2842 2841 2838 2834 2831 2828 2827 2826 2824 2822 2821 2819 2818 2815 2811 2807 2804 2803 2803 2803 2803 2803 2802 2802 2802 2801 2800 2799 2798 2798 2797 2797 2796 2795 2794 2793 2793 2792 2792 2791 2790 2789 2788 2787 2786 2785 2784 2783 2782 2781 2779 2777 2775 2773
2887 2886 2884 2883 2882 2881 2880 2878 2877 2875 2874 2872 2871 2869 2867 2866 2864 2862 2861 2859 2858 2856 2854 2853 2851 2849 2847 2846 2844 2843 2842 2842 2841 2839 2837 2833 2830 2827 2825 2823 2822 2821 2818 2817 2815 2812 2810 2807 2804 2802 2799 2799 2800 2800 2800 2799 2798 2798 2797 2796 2795 2795 2794 2793 2792 2792 2791 2790 2790 2789 2788 2787 2787 2786 2785 2784 2783 2782 2781 2780 2779 2778 2777 2775 2773 2771
2885 2884 2882 2881 2880 2879 2878 2877 2875 2874 2872 2871 2869 2867 2866 2864 2862 2861 2860 2858 2857 2855 2854 2852 2850 2848 2847 2844 2842 2841 2840 2840 2840 2838 2835 2832 2829 2826 2823 2822 2821 2819 2817 2814 2812 2810 2807 2805 2803 2801 2798 2796 2796 2797 2797 2797 2796 2795 2794 2794 2793 2792 2791 2790 2789 2788 2787 2787 2786 2786 2785 2784 2783 2782 2782 2781 2780 2779 2778 2777 2776 2776 2774 2773 2771 2768
2883 2882 2881 2880 2878 2877 2876 2875 2874 2872 2871 2869 2867 2866 2864 2863 2861 2860 2858 2857 2856 2854 2853 2851 2850 2848 2846 2844 2842 2839 2838 2837 2837 2836 2834 2831 2828 2825 2822 2820 2819 2818 2816 2813 2810 2808 2806 2803 2801 2799 2797 2795 2793 2792 2793 2793 2793 2792 2792 2791 2790 2789 2788 2787 2786 2785 2784 2783 2783 2782 2781 2780 2780 2779 2778 2777 2776 2775 2775 2774 2773 2772 2772 2770 2768 2767
2882 2881 2879 2878 2877 2876 2874 2873 2872 2870 2869 2867 2866 2864 2863 2861 2860 2858 2857 2856 2854 2853 2852 2850 2848 2847 2845 2843 2841 2839 2837 2835 2834 2833 2832 2830 2827 2824 2821 2818 2817 2816 2815 2812 2809 2807 2804 2801 2799 2797 2795 2794 2792 2790 2789 2789 2789 2789 2789 2788 2787 2786 2786 2785 2783 2782 2781 2780 2779 2778 2778 2777 2776 2775 2774 2773 2773 2772 2771 2771 2770 2769 2768 2767 2766 2764
2880 2879 2878 2877 2875 2874 2873 2871 2870 2868 2867 2866 2864 2863 2861 2860 2858 2857 2855 2854 2853 2851 2850 2848 2847 2845 2844 2842 2840 2838 2836 2834 2832 2831 2829 2827 2826 2823 2820 2817 2815 2814 2813 2812 2808 2806 2803 2800 2797 2795 2792 2791 2790 2789 2787 2787 2786 2785 2785 2785 2784 2783 2782 2782 2781 2779 2778 2777 2776 2775 2774 2773 2772 2771 2770 2770 2769 2768 2768 2767 2767 2766 2765 2763 2762 2761
2879 2877 2876 2875 2874 2872 2871 2869 2868 2867 2865 2864 2862 2861 2859 2858 2857 2855 2854 2852 2851 2849 2848 2846 2845 2843 2842 2841 2839 2837 2835 2833 2831 2829 2827 2825 2824 2822 2819 2816 2814 2812 2811 2810 2808 2805 2803 2800 2797 2794 2791 2789 2787 2786 2786 2785 2784 2783 2782 2781 2781 2781 2780 2779 2778 2777 2775 2773 2772 2771 2771 2770 2769 2767 2767 2766 2765 2765 2764 2763 2763 2762 2761 2759 2758 2757
2877 2876 2875 2874 2872 2871 2869 2868 2867 2865 2864 2862 2861 2859 2858 2856 2855 2854 2852 2851 2849 2848 2846 2844 2843 2841 2840 2839 2837 2836 2834 2832 2830 2827 2826 2824 2822 2820 2818 2815 2813 2811 2809 2807 2806 2804 2802 2798 2796 2793 2791 2788 2786 2783 2782 2782 2782 2781 2779 2778 2777 2777 2777 2776 2775 2774 2772 2771 2769 2768 2767 2766 2765 2764 2763 2762 2762 2761 2760 2759 2759 2758 2757 2755 2753 2752
2876 2875 2874 2872 2871 2870 2868 2867 2865 2863 2862 2861 2859 2857 2856 2854 2853 2852 2851 2849 2848 2847 2845 2842 2841 2839 2838 2837 2837 2835 2833 2831 2828 2827 2824 2822 2821 2819 2817 2814 2812 2809 2807 2805 2803 2801 2799 2797 2794 2791 2789 2787 2784 2782 2781 2781 2780 2780 2778 2776 2774 2773 2773 2773 2772 2771 2770 2768 2767 2766 2764 2762 2762 2761 2760 2759 2759 2758 2757 2756 2755 2754 2753 2752 2750 2748
2875 2873 2872 2871 2870 2868 2867 2865 2864 2862 2861 2859 2857 2856 2854 2852 2851 2849 2848 2847 2846 2844 2842 2841 2838 2837 2836 2836 2835 2834 2832 2830 2828 2826 2823 2821 2819 2817 2815 2813 2811 2808 2806 2803 2801 2799 2797 2795 2793 2790 2788 2786 2783 2781 2779 2779 2779 2778 2777 2775 2772 2771 2770 2770 2770 2769 2767 2766 2764 2763 2762 2760 2758 2757 2757 2757 2756 2756 2755 2754 2752 2751 2750 2748 2746 2744
2873 2872 2871 2870 2868 2867 2865 2864 2862 2861 2859 2858 2856 2854 2853 2851 2849 2847 2846 2844 2843 2842 2840 2838 2836 2834 2833 2832 2832 2832 2831 2829 2827 2825 2822 2820 2818 2816 2813 2812 2809 2807 2804 2802 2799 2796 2794 2793 2791 2789 2787 2785 2782 2780 2778 2777 2776 2776 2775 2774 2772 2769 2767 2766 2767 2766 2765 2763 2762 2761 2759 2757 2756 2755 2754 2754 2753 2753 2752 2751 2750 2748 2747 2745 2743 2741
2872 2871 2870 2868 2867 2866 2864 2862 2861 2859 2858 2857 2855 2853 2852 2850 2848 2846 2844 2842 2841 2839 2837 2836 2834 2832 2831 2830 2829 2828 2827 2827 2826 2824 2821 2819 2817 2814 2812 2810 2807 2805 2803 2800 2797 2795 2792 2791 2789 2787 2786 2783 2781 2779 2777 2776 2775 2774 2773 2772 2770 2768 2766 2764 2763 2762 2762 2761 2760 2759 2757 2755 2753 2752 2752 2751 2751 2750 2749 2748 2747 2745 2744 2742 2740 2738
2871 2869 2868 2867 2866 2864 2862 2861 2859 2858 2857 2855 2854 2852 2850 2849 2847 2845 2843 2841 2839 2837 2836 2834 2832 2830 2828 2827 2826 2824 2824 2823 2823 2822 2820 2818 2815 2813 2811 2808 2806 2803 2801 2799 2797 2794 2791 2789 2787 2785 2784 2782 2780 2779 2777 2775 2773 2772 2771 2769 2768 2766 2764 2763 2762 2760 2759 2758 2757 2756 2754 2753 2751 2750 2749 2748 2747 2747 2746 2744 2743 2742 2740 2739 2737 2735
2869 2868 2867 2866 2864 2862 2861 2860 2858 2857 2855 2854 2852 2851 2849 2847 2846 2844 2842 2840 2837 2836 2834 2832 2831 2829 2827 2825 2823 2822 2820 2819 2819 2818 2817 2815 2813 2811 2809 2807 2804 2802 2799 2797 2795 2792 2790 2788 2786 2783 2782 2780 2778 2777 2776 2774 2772 2769 2768 2767 2765 2764 2762 2761 2760 2758 2757 2755 2754 2753 2752 2750 2749 2747 2746 2745 2744 2743 2742 2741 2740 2738 2737 2735 2734 2732
2868 2867 2865 2864 2862 2861 2860 2858 2857 2855 2854 2853 2851 2850 2848 2846 2844 2842 2840 2838 2837 2835 2833 2831 2829 2827 2826 2823 2821 2819 2817 2816 2815 2814 2813 2812 2810 2808 2807 2804 2802 2800 2797 2795 2793 2791 2789 2787 2785 2783 2780 2778 2776 2774 2774 2772 2771 2768 2766 2764 2763 2761 2759 2758 2757 2756 2754 2752 2751 2750 2749 2747 2746 2744 2742 2741 2740 2740 2739 2738 2737 2736 2734 2732 2731 2729
2867 2865 2864 2862 2861 2860 2858 2857 2855 2854 2852 2851 2850 2848 2847 2845 2843 2841 2839 2837 2835 2833 2832 2830 2828 2826 2824 2822 2820 2818 2816 2814 2812 2811 2809 2807 2806 2804 2802 2801 2798 2797 2794 2792 2791 2789 2787 2785 2784 2782 2780 2777 2774 2772 2770 2770 2768 2767 2764 2762 2760 2758 2757 2755 2754 2753 2752 2750 2749 2748 2747 2745 2743 2741 2739 2738 2737 2736 2736 2735 2734 2733 2732 2730 2728 2727
2865 2864 2862 2861 2859 2858 2857 2855 2854 2852 2851 2850 2848 2847 2845 2844 2842 2840 2838 2836 2834 2832 2830 2828 2826 2824 2822 2820 2819 2817 2815 2813 2811 2809 2807 2805 2803 2801 2799 2797 2795 2792 2791 2789 2787 2786 2784 2783 2782 2781 2778 2776 2773 2770 2767 2766 2765 2764 2762 2760 2758 2756 2754 2752 2752 2751 2749 2748 2747 2746 2745 2743 2741 2739 2737 2735 2733 2733 2733 2732 2732 2731 2729 2727 2726 2724
2864 2863 2861 2859 2858 2857 2855 2854 2852 2851 2850 2848 2847 2845 2843 2842 2841 2839 2837 2835 2833 2831 2829 2827 2825 2822 2820 2818 2817 2815 2813 2811 2809 2807 2805 2803 2801 2799 2796 2794 2792 2789 2787 2785 2783 2782 2781 2780 2779 2778 2777 2775 2772 2769 2766 2764 2762 2761 2760 2758 2756 2754 2752 2750 2749 2748 2747 2746 2745 2744 2742 2741 2740 2738 2736 2734 2732 2730 2730 2730 2729 2728 2727 2725 2723 2722
2863 2862 2860 2858 2857 2856 2854 2853 2852 2850 2848 2847 2845 2843 2842 2840 2839 2837 2836 2833 2832 2830 2828 2826 2824 2822 2819 2817 2815 2813 2812 2810 2807 2806 2804 2802 2799 2797 2795 2792 2790 2787 2785 2782 2780 2778 2777 2776 2775 2775 2775 2774 2772 2769 2766 2763 2761 2759 2757 2756 2755 2753 2751 2749 2747 2746 2745 2744 2743 2742 2740 2739 2737 2736 2734 2732 2730 2728 2727 2727 2727 2726 2725 2723 2721 2720